Waterloo, IA

2:56 AM CST on November 21, 2017 (GMT -0600)
Waterloo Municipal

Weather History for KALO - September, 2013

Change the Weather History Date:

Sunday, September 8, 2013

  Actual Average Record
Temperature  
Mean Temperature 73 °F 66 °F  
Max Temperature 76 °F 78 °F 99 °F (1933)
Min Temperature 69 °F 54 °F 35 °F (1986)
Degree Days  
Heating Degree Days 0 2  
Month to date heating degree days 8 14  
Since 1 July heating degree days 28 34  
Cooling Degree Days 8 4  
Month to date cooling degree days 54 35  
Year to date cooling degree days 750 747  
Growing Degree Days 22 (Base 50)    
Moisture  
Dew Point 67 °F    
Average Humidity 86    
Maximum Humidity 97    
Minimum Humidity 74    
Precipitation  
Precipitation 0.00 in 0.09 in 2.65 in (1964)
Month to date precipitation 0.01 0.77  
Year to date precipitation 34.30 27.05  
Snow  
Snow 0.00 in 0.00 in - ()
Month to date snowfall 0.0 0.0  
Since 1 July snowfall 0.0 0.0  
Since 1 September snowfall 0.0 0.0  
Snow Depth 0.00 in    
Sea Level Pressure  
Sea Level Pressure 29.92 in    
Wind  
Wind Speed 11 mph (East)    
Max Wind Speed 20 mph    
Max Gust Speed 24 mph    
Visibility 9 miles    
Events      
T = Trace of Precipitation, MM = Missing Value Source: NWS Daily Summary

Daily Weather History Graph

Daily Weather History Graph

Search for Another Location

Airport or City:

Trip Planner

Search our weather history database for the weather conditions in past years. The results will help you decide how hot, cold, wet, or windy it might be!

Date:

Astronomy

Sep. 08, 2013 Rise Set
Actual Time 6:42 AM CDT 7:31 PM CDT
Civil Twilight 6:13 AM CDT 7:59 PM CDT
Nautical Twilight 5:39 AM CDT 8:33 PM CDT
Astronomical Twilight 5:04 AM CDT 9:08 PM CDT
Moon 10:05 AM CDT (9/8) 9:01 PM CDT (9/8)
Length of Visible Light 13h 46m
Length of Day
12h 48m
Waxing Crescent, 11% of the Moon is Illuminated
Sep 8
Waxing Crescent
Sep 12
First Quarter
Sep 19
Full
Sep 26
Last Quarter
Oct 4
New

Hourly Weather History & Observations

Time (CDT) Temp. Dew Point Humidity Pressure Visibility Wind Dir Wind Speed Gust Speed Precip Events Conditions
12:54 AM 70.0 °F 68.0 °F 93% 29.89 in 6.0 mi Calm Calm - N/A   Clear
1:54 AM 72.0 °F 69.1 °F 91% 29.90 in 8.0 mi NNE 6.9 mph - N/A   Clear
2:54 AM 71.1 °F 69.1 °F 93% 29.89 in 6.0 mi NNE 9.2 mph - N/A   Clear
3:54 AM 72.0 °F 70.0 °F 93% 29.89 in 8.0 mi ENE 11.5 mph - N/A   Clear
4:54 AM 71.1 °F 69.1 °F 93% 29.91 in 7.0 mi ENE 10.4 mph - N/A   Clear
5:33 AM 71.6 °F 68.0 °F 88% 29.93 in 7.0 mi ENE 9.2 mph - N/A   Mostly Cloudy
5:54 AM 71.1 °F 68.0 °F 90% 29.92 in 7.0 mi East 16.1 mph 21.9 mph N/A   Overcast
6:54 AM 71.1 °F 68.0 °F 90% 29.95 in 8.0 mi East 10.4 mph - N/A   Overcast
7:54 AM 70.0 °F 66.9 °F 90% 29.96 in 8.0 mi East 13.8 mph 20.7 mph N/A   Overcast
8:54 AM 70.0 °F 66.0 °F 87% 29.96 in 10.0 mi East 12.7 mph - N/A   Overcast
9:54 AM 71.1 °F 66.0 °F 84% 29.99 in 10.0 mi East 13.8 mph - N/A   Overcast
10:54 AM 71.1 °F 64.9 °F 81% 29.99 in 10.0 mi East 15.0 mph - N/A   Overcast
11:54 AM 72.0 °F 66.0 °F 81% 29.98 in 10.0 mi East 13.8 mph 20.7 mph N/A   Overcast
12:54 PM 73.9 °F 66.0 °F 76% 29.97 in 10.0 mi East 16.1 mph - N/A   Overcast
1:54 PM 75.9 °F 66.0 °F 71% 29.93 in 10.0 mi East 18.4 mph - N/A   Overcast
2:54 PM 75.0 °F 66.0 °F 73% 29.93 in 10.0 mi East 16.1 mph - N/A   Overcast
3:54 PM 73.9 °F 66.9 °F 79% 29.92 in 10.0 mi East 10.4 mph - N/A   Overcast
4:54 PM 73.9 °F 66.9 °F 79% 29.90 in 10.0 mi East 12.7 mph - N/A   Overcast
5:36 PM 75.2 °F 66.2 °F 73% 29.90 in 10.0 mi East 12.7 mph - N/A   Scattered Clouds
5:54 PM 75.9 °F 66.9 °F 74% 29.88 in 10.0 mi East 12.7 mph - N/A   Partly Cloudy
6:54 PM 75.0 °F 68.0 °F 79% 29.88 in 10.0 mi East 8.1 mph - N/A   Overcast
7:54 PM 73.0 °F 66.9 °F 81% 29.88 in 10.0 mi East 8.1 mph - N/A   Overcast
8:54 PM 70.0 °F 66.9 °F 90% 29.88 in 10.0 mi ENE 5.8 mph - N/A   Clear
9:54 PM 69.1 °F 66.9 °F 93% 29.88 in 9.0 mi East 8.1 mph - N/A   Clear
10:54 PM 69.1 °F 66.9 °F 93% 29.88 in 8.0 mi East 6.9 mph - N/A   Clear
11:54 PM 69.1 °F 66.9 °F 93% 29.87 in 7.0 mi East 6.9 mph - N/A   Clear